Regional Weather Roundup
Issued by NWS

Home | Current Version | Previous Version | Text Only | Print | Product List | Glossary On
Versions: 1 2 3 4 5 6 7 8 9 10 11 12 13 14 15 16 17 18 19 20 21 22 23 24 25 26 27 28 29 30 31 32 33 34 35 36 37 38 39 40 41 42 43 44 45 46 47 48 49 50
000
ASUS43 KLSX 021710
RWRMO

WEATHER SUMMARY FOR MISSOURI
NATIONAL WEATHER SERVICE SPRINGFIELD MO
1200 PM CDT WED SEP 02 2015

NOTE: "FAIR" INDICATES FEW OR NO CLOUDS BELOW 12,000 FEET WITH NO
       SIGNIFICANT WEATHER AND/OR OBSTRUCTIONS TO VISIBILITY.
       CURRENT SKY AND/OR WEATHER CONDITIONS ARE NOT AVAILABLE FOR
       CHILLICOTHE AND FARMINGTON.

MOZ001>031-035>038-043-044-053-054-021800-
...NORTHERN AND WESTERN MISSOURI...

CITY           SKY/WX    TMP DP  RH WIND       PRES   REMARKS
KANSAS CTY INT CLOUDY    74  69  85 SE13      30.05F
KANSAS C DTWN  LGT RAIN  78  70  76 E5        30.04F
LEE`S SUMMIT   PTSUNNY   81  68  64 S9        30.07F
ST JOSEPH      CLOUDY    74  70  87 SE12      30.03F
CHILLICOTHE      N/A     72  70  93 SE5       30.08F
KIRKSVILLE     CLOUDY    75  68  78 SW9       30.07F

$$
MOZ066>068-077>081-088>096-101>105-021800-
...SOUTHWEST MISSOURI...

CITY           SKY/WX    TMP DP  RH WIND       PRES   REMARKS
SPRINGFIELD    SUNNY     84  69  60 S8        30.12S
JOPLIN         SUNNY     84  69  60 SW8       30.09S

$$
MOZ032>034-039>042-045>050-055>058-069>072-021800-
...CENTRAL MISSOURI...

CITY           SKY/WX    TMP DP  RH WIND       PRES   REMARKS
COLUMBIA       PTSUNNY   84  70  62 SW8       30.10F
JEFFERSON CITY MOSUNNY   85  68  56 W5        30.09F
ROLLA          SUNNY     86  67  52 VRB5      30.11F
SEDALIA        PTSUNNY   83  68  60 SW7       30.11F
WHITEMAN AFB   PTSUNNY   83  69  62 SW6       30.08F
WARRENSBURG    PTSUNNY   82  68  61 SE3       30.08F
OSAGE BEACH    MOSUNNY   84  68  58 N3        30.12S

$$
MOZ051-052-059>065-021800-
...EAST CENTRAL MISSOURI...

CITY           SKY/WX    TMP DP  RH WIND       PRES   REMARKS
ST LOUIS INTL  MOSUNNY   90  67  46 W8        30.10F HX  93
SPIRIT OF STL  MOSUNNY   88  69  53 SW9       30.08F HX  92
ST CHARLES     SUNNY     88  69  53 W8        30.08F HX  92

$$
MOZ072>076-082>087-097>100-106>115-021800-
...SOUTH CENTRAL AND SOUTHEAST MISSOURI...

CITY           SKY/WX    TMP DP  RH WIND       PRES   REMARKS
CAPE GIRARDEAU MOSUNNY   85  72  65 W6        30.10F HX  91
FARMINGTON     SUNNY     84  72  65 SW5       30.15F
POPLAR BLUFF   SUNNY     85  70  60 SW6       30.10F
WEST PLAINS    SUNNY     85  67  54 VRB6      30.15S

$$


USA.gov is the U.S. government's official web portal to all federal, state and local government web resources and services.